TimeCST,TemperatureF,Dew PointF,Humidity,Sea Level PressureIn,VisibilityMPH,Wind Direction,Wind SpeedMPH,Gust SpeedMPH,PrecipitationIn,Events,Conditions,WindDirDegrees,DateUTC
12:52 AM,44.1,42.1,93,30.25,8.0,Calm,Calm,-,N/A,,Clear,0,2013-11-10 06:52:00
1:18 AM,42.8,39.2,87,30.25,2.5,Calm,Calm,-,N/A,,Clear,0,2013-11-10 07:18:00
1:26 AM,42.8,39.2,87,30.25,7.0,Calm,Calm,-,N/A,,Clear,0,2013-11-10 07:26:00
1:52 AM,42.1,41.0,96,30.26,6.0,Calm,Calm,-,N/A,,Clear,0,2013-11-10 07:52:00
2:07 AM,42.8,41.0,93,30.27,2.5,Calm,Calm,-,N/A,,Clear,0,2013-11-10 08:07:00
2:14 AM,42.8,41.0,93,30.27,7.0,West,3.5,-,N/A,,Clear,260,2013-11-10 08:14:00
2:52 AM,41.0,39.0,93,30.28,3.0,Calm,Calm,-,N/A,,Clear,0,2013-11-10 08:52:00
3:01 AM,41.0,39.2,93,30.28,1.8,Calm,Calm,-,N/A,,Clear,0,2013-11-10 09:01:00
3:16 AM,41.0,39.2,93,30.28,3.0,Calm,Calm,-,N/A,,Clear,0,2013-11-10 09:16:00
3:26 AM,39.2,39.2,100,30.29,1.8,Calm,Calm,-,N/A,,Clear,0,2013-11-10 09:26:00
3:44 AM,39.2,37.4,93,30.30,0.8,Calm,Calm,-,N/A,,Clear,0,2013-11-10 09:44:00
3:49 AM,39.2,37.4,93,30.30,2.0,Calm,Calm,-,N/A,,Clear,0,2013-11-10 09:49:00
3:52 AM,39.9,39.0,97,30.30,1.8,Calm,Calm,-,N/A,,Clear,0,2013-11-10 09:52:00
4:30 AM,39.2,39.2,100,30.32,4.0,NW,4.6,-,N/A,,Clear,320,2013-11-10 10:30:00
4:52 AM,39.9,36.0,86,30.34,10.0,North,5.8,-,N/A,,Clear,350,2013-11-10 10:52:00
5:52 AM,42.1,36.0,79,30.36,10.0,NNW,3.5,-,N/A,,Clear,340,2013-11-10 11:52:00
6:52 AM,37.9,36.0,93,30.38,10.0,Calm,Calm,-,N/A,,Clear,0,2013-11-10 12:52:00
7:52 AM,44.1,37.9,79,30.40,10.0,Calm,Calm,-,N/A,,Clear,0,2013-11-10 13:52:00
8:52 AM,48.9,36.0,61,30.42,10.0,North,6.9,-,N/A,,Clear,350,2013-11-10 14:52:00
9:52 AM,51.1,33.1,50,30.43,10.0,North,9.2,-,N/A,,Scattered Clouds,360,2013-11-10 15:52:00
10:52 AM,52.0,33.1,49,30.43,10.0,NNW,6.9,-,N/A,,Scattered Clouds,340,2013-11-10 16:52:00
11:52 AM,55.0,30.0,38,30.40,10.0,Variable,4.6,-,N/A,,Scattered Clouds,0,2013-11-10 17:52:00
12:52 PM,55.9,28.9,36,30.38,10.0,Variable,3.5,-,N/A,,Partly Cloudy,0,2013-11-10 18:52:00
1:52 PM,57.0,30.0,36,30.37,10.0,NNW,8.1,-,N/A,,Partly Cloudy,330,2013-11-10 19:52:00
2:52 PM,57.0,28.9,34,30.36,10.0,Calm,Calm,-,N/A,,Partly Cloudy,0,2013-11-10 20:52:00
3:52 PM,57.0,30.0,36,30.36,10.0,East,3.5,-,N/A,,Partly Cloudy,80,2013-11-10 21:52:00
4:52 PM,50.0,32.0,50,30.35,10.0,Calm,Calm,-,N/A,,Clear,0,2013-11-10 22:52:00
5:52 PM,45.0,32.0,60,30.36,10.0,Calm,Calm,-,N/A,,Clear,0,2013-11-10 23:52:00
6:52 PM,42.1,34.0,73,30.35,10.0,Calm,Calm,-,N/A,,Clear,0,2013-11-11 00:52:00
7:52 PM,39.0,33.1,79,30.35,10.0,Calm,Calm,-,N/A,,Clear,0,2013-11-11 01:52:00
8:52 PM,37.9,33.1,83,30.36,10.0,Calm,Calm,-,N/A,,Clear,0,2013-11-11 02:52:00
9:52 PM,35.1,32.0,89,30.35,10.0,Calm,Calm,-,N/A,,Clear,0,2013-11-11 03:52:00
10:52 PM,33.1,30.9,92,30.34,10.0,Calm,Calm,-,N/A,,Clear,0,2013-11-11 04:52:00
11:52 PM,32.0,30.0,92,30.32,10.0,Calm,Calm,-,N/A,,Clear,0,2013-11-11 05:52:00